Location: Edoum�
(0.9447°N, 10.6482°E)
Time: 08:14:29
(UTC+00:00)

Ariane 3 Deb - Pass Details

Date: 09 October 2020
Orbit: 229 x 18408 km, 6.8° (Epoch: 21 October)

Event Time Altitude Azimuth Distance (km) Brightness Sun altitude
Exits shadow 03:37:59 30° 291° (WNW) 2,591 5.1 -21.6°
Maximum altitude 03:43:43 73° 10° (N) 2,851 5.8 -20.2°
Drops below altitude 10° 05:36:17 10° 94° (E) 22,184 14.0 7.8°
Sets 06:53:12 0° 96° (E) 22,542 11.8 26.8°
